Location: El Álamo
(40.2307°N, 3.9945°W)
Time: 03:50:40
(UTC+00:00)

Meteor PRIRODA - Pass Details

Date: 19 May 2025
Orbit: 356 x 366 km, 97.5° (Epoch: 23 June)

Event Time Altitude Azimuth Distance (km) Brightness Sun altitude
Rises 09:49:09 0° 3° (N) 2,264 6.8 53.3°
Reaches altitude 10° 09:51:12 10° 354° (N) 1,403 5.8 53.6°
Maximum altitude 09:53:58 35° 287° (WNW) 640 4.2 54.1°
Drops below altitude 10° 09:56:41 10° 219° (SW) 1,383 5.9 54.6°
Enters shadow 10:25:18 -61° 192° (SSW) 11,553 10.1 59.4°
Exits shadow 10:58:26 -50° 29° (NNE) 10,280 9.8 64.2°
